Location: ?????????
(44.2517°N, 135.2292°E)
Time: 14:57:00
(UTC+00:00)

NPP - Pass Details

Date: 19 May 2025
Orbit: 826 x 827 km, 98.8° (Epoch: 21 June)

Event Time Altitude Azimuth Distance (km) Brightness Sun altitude
Rises 16:46:48 0° 14° (NNE) 3,377 8.2 -21.0°
Reaches altitude 10° 16:49:10 10° 16° (NNE) 2,439 7.2 -20.8°
Maximum altitude 16:54:35 82° 105° (ESE) 840 3.6 -20.3°
Enters shadow 16:56:49 37° 188° (S) 1,266 4.1 -20.1°
